Regional Weather Roundup
Issued by NWS

Home | Current Version | Previous Version | Text Only | Print | Product List | Glossary Off
Versions: 1 2 3 4 5 6 7 8 9 10 11 12 13 14 15 16 17 18 19 20 21 22 23 24 25 26 27 28 29 30 31 32 33 34 35 36 37 38 39 40 41 42 43 44 45 46 47 48 49 50

000
ASUS43 KDMX 230907
RWRIA

WEATHER ROUNDUP FOR IOWA
NATIONAL WEATHER SERVICE DES MOINES IA
300 AM CST SUN NOV 23 2014

NOTE: "FAIR" INDICATES FEW OR NO CLOUDS BELOW 12,000 FEET WITH NO
SIGNIFICANT WEATHER AND/OR OBSTRUCTIONS TO VISIBILITY.

* - THESE STATIONS ARE NOT NWS STATIONS...THUS NOT UNDER NWS
QUALITY CONTROL.  THEY ALSO DO NOT REPORT WEATHER SUCH
AS PRECIPITATION OR FOG.

IAZ001>003-012>014-020>022-031>034-043>046-231000-
   NORTHWEST IOWA

CITY           SKY/WX    TMP DP  RH WIND       PRES   REMARKS
CARROLL *      CLOUDY    52  52 100 SW14G22   29.51F
CHEROKEE *     CLOUDY    52  52 100 S12       29.46F
DENISON *      CLOUDY    54  54 100 S15G22    29.48F
LE MARS *      PTCLDY    50  50 100 S13       29.44F
ORANGE CITY *  PTCLDY    50  48  93 S9        29.44F FOG
SHELDON *      MOCLDY    50  50 100 S14       29.43F FOG
SIOUX CITY     CLOUDY    51  49  92 SE7       29.46F
SPENCER        CLOUDY    48  46  93 S10       29.45F FOG
STORM LAKE *   MOCLDY    50  50 100 SW12      29.50S FOG
$$

IAZ055>058-069>071-079>083-090>094-231000-
   SOUTHWEST IOWA

CITY           SKY/WX    TMP DP  RH WIND       PRES   REMARKS
ATLANTIC *     CLOUDY    54  52  94 S13G18    29.53F
AUDUBON *      CLEAR     52  46  82 S15G24    29.54S HAZE
CLARINDA *     CLOUDY    54  52  94 S13G20    29.58S
COUNCIL BLFS * CLOUDY    54  54 100 S14G22    29.50F
CRESTON *      CLOUDY    52  52 100 S17G24    29.57F FOG
HARLAN  *      CLOUDY    52  52 100 S15G21    29.55S
LAMONI         CLOUDY    51  50  96 S10       29.61F FOG
RED OAK *      CLOUDY    54  52  94 S13       29.55S
SHENANDOAH *   CLOUDY    54  52  94 S13       29.55F
$$

IAZ047>049-059>061-072>074-084-231000-
   CENTRAL IOWA

CITY           SKY/WX    TMP DP  RH WIND       PRES   REMARKS
AMES           CLOUDY    53  49  86 S13       29.56F
ANKENY *       CLOUDY    54  52  94 S13       29.57F
CHARITON *     CLOUDY    54  50  87 S17       29.61F
DES MOINES     CLOUDY    54  50  86 S12       29.58F
GRINNELL*      CLOUDY    50  50 100 S12       29.62F FOG
KNOXVILLE *    CLOUDY    54  50  87 S13G21    29.60F
MARSHALLTOWN   CLOUDY    52  50  93 S15       29.57F
PELLA *        CLOUDY    54  50  87 S10       29.63F
PERRY *        CLOUDY    54  52  94 S13       29.54S
$$

IAZ004>006-015-016-023>025-035-036-231000-
   NORTH CENTRAL IOWA

CITY           SKY/WX    TMP DP  RH WIND       PRES   REMARKS
ALGONA *       CLOUDY    50  50 100 S14       29.50F FOG
CLARION *      CLOUDY    50  50 100 S14       29.53S FOG
ESTHERVILLE    CLOUDY    50  49  96 S12       29.46F
FORT DODGE *   CLOUDY    52  48  87 S15       29.53F
MASON CITY     CLOUDY    50  49  96 SW14      29.54F FOG
FOREST CITY *  CLOUDY    50  50 100 S14       29.52F
IOWA FALLS *   CLOUDY    50  48  93 S9        29.57S FOG
$$

IAZ007>011-017>019-026>030-037>042-050>054-066-231000-
   NORTHEAST IOWA

CITY           SKY/WX    TMP DP  RH WIND       PRES   REMARKS
CEDAR RAPIDS   CLOUDY    51  50  96 S10       29.63F
CHARLES CITY * CLOUDY    50  50 100 S14       29.57F FOG
CLINTON *      CLOUDY    50  46  87 S13       29.73F
DECORAH *      CLOUDY    50  50 100 S9G16     29.58F FOG
DUBUQUE        CLOUDY    48  48 100 S17       29.66F FOG
MONTICELLO *   CLOUDY    50  50 100 S10G17    29.66S FOG
OELWEIN *      CLOUDY    50  48  93 S13       29.61F FOG
WATERLOO       CLOUDY    50  49  96 S12       29.59F FOG
$$

IAZ064-065-067-068-078-231000-
   EAST CENTRAL IOWA

CITY           SKY/WX    TMP DP  RH WIND       PRES   REMARKS
DAVENPORT      CLOUDY    52  47  83 S14G25    29.70F
IOWA CITY      CLOUDY    51  50  96 S10       29.68F FOG
MT. PLEASANT * CLOUDY    52  50  93 S10       29.69F
MUSCATINE *    CLOUDY    52  50  93 S12       29.69F FOG
QUAD CITIES    CLOUDY    53  48  83 S16G23    29.70F
$$

IAZ062-063-075>077-085>089-095>099-231000-
   SOUTHEAST IOWA

CITY           SKY/WX    TMP DP  RH WIND       PRES   REMARKS
BURLINGTON     CLOUDY    52  49  89 S12       29.70F
FAIRFIELD *    CLOUDY    52  50  93 S10       29.67F
FORT MADISON * CLOUDY    54  50  87 S13       29.71F
KEOKUK *       CLOUDY    54  50  87 S14G21    29.70F
OSKALOOSA *    CLOUDY    52  50  93 S14       29.65S
CENTERVILLE *  CLOUDY    52  52 100 S13       29.66F
OTTUMWA        CLOUDY    53  49  86 S12       29.65F
WASHINGTON *   CLOUDY    52  52 100 S14       29.67F FOG
$$

ABBREVIATIONS USED IN REMARKS
   TC - TEMPERATURES IN CELSIUS
  WCI - WIND CHILL INDEX
   HX - HEAT INDEX
  VSB - VISIBILITY
$$




USA.gov is the U.S. government's official web portal to all federal, state and local government web resources and services.